Location: Marysville Observatory
(48.1092°N, 122.1645°W)
Time: 11:49:19
(UTC-07:00)

Amateur Radio Satellites - All Passes

Search period start: 24 October 2014 11:19
Search period end: 25 October 2014 11:19
Location: Marysville Observatory, 48.1092°N, 122.1645°W

Satellite Date Start Highest point End Downlink Frequencies (MHz)
Time Altitude Azimuth
KITSAT 1 24 Oct 11:34:53 11:40:48 23° 104° (ESE) 11:46:42 435.175 FM
Sapphire 24 Oct 11:38:06 11:42:27 23° 35° (NE) 11:46:46 437.095 MHz 1200 baud AX-25 AFSK
FUNcube-1 24 Oct 11:41:04 11:45:24 87° 104° (ESE) 11:49:35 145.950 - 145.970 MHz USB
Oscar 11 24 Oct 11:44:39 11:48:41 40° 291° (WNW) 11:52:41 145.825 FM, Beacon 2401.500 USB
Oscar 19 24 Oct 11:51:42 11:53:23 12° 52° (NE) 11:55:05 437.125 CW, 437.150 USB
PCSat 24 Oct 12:00:35 12:05:26 32° 41° (NE) 12:10:15 145.825 MHz
HO-68 24 Oct 12:10:27 12:16:20 29° 306° (NW) 12:22:13 435.675 MHz FM
ZACube-1 24 Oct 12:32:56 12:36:40 29° 294° (WNW) 12:40:19 437.345 MHz
Oscar 16 24 Oct 12:34:21 12:38:31 25° 61° (ENE) 12:42:41 437.025 USB, Beacon 2401.1428
AO-Echo 24 Oct 12:34:46 12:37:18 14° 54° (NE) 12:39:52 ?
UKube-1 24 Oct 12:40:05 12:42:20 14° 303° (WNW) 12:44:35 145.840 MHz, 145.915 MHz
SO-50 24 Oct 12:46:50 12:50:04 20° 112° (ESE) 12:53:21 436.795 FM
Uribyol 2 24 Oct 12:54:00 12:57:32 19° 57° (ENE) 13:01:04 436.500 FM
ITAMSAT 1 24 Oct 12:59:47 13:03:26 20° 57° (ENE) 13:07:05 435.822 SSB
JAS-1B 24 Oct 13:06:17 13:11:40 40° 65° (ENE) 13:16:56 435.800 - 435.900 CW/SSB
Gurwin Techsat 1B 24 Oct 13:17:58 13:21:06 16° 55° (NE) 13:24:14 435.225 FM
ISS 24 Oct 13:18:31 13:21:13 23° 141° (SE) 13:23:55 145.800 FM
FUNcube-1 24 Oct 13:19:21 13:21:06 12° 303° (WNW) 13:22:50 145.950 - 145.970 MHz USB
Sapphire 24 Oct 13:21:07 13:26:36 88° 237° (WSW) 13:32:02 437.095 MHz 1200 baud AX-25 AFSK
Oscar 19 24 Oct 13:26:41 13:31:46 64° 71° (ENE) 13:36:52 437.125 CW, 437.150 USB
KITSAT 1 24 Oct 13:27:04 13:35:10 89° 125° (SE) 13:43:18 435.175 FM
TMSAT-1 24 Oct 13:29:39 13:32:37 15° 54° (NE) 13:35:36 436.925 FM
AO-27 24 Oct 13:43:43 13:48:35 42° 66° (ENE) 13:53:31 436.795 MHz FM
PCSat 24 Oct 13:43:50 13:49:10 57° 242° (WSW) 13:54:27 145.825 MHz
Saudisat 1A 24 Oct 14:00:41 14:02:42 13° 19° (NNE) 14:04:44 436.775 MHz
AO-Echo 24 Oct 14:10:19 14:15:14 82° 74° (ENE) 14:20:21 ?
Oscar 16 24 Oct 14:12:32 14:17:34 52° 260° (W) 14:22:38 437.025 USB, Beacon 2401.1428
UOSAT-12 24 Oct 14:13:26 14:15:56 14° 109° (ESE) 14:18:27 437.025 FM, 437.400 FM
AO-7 24 Oct 14:24:59 14:31:26 26° 47° (NE) 14:37:54 29.400 - 29.500 MHz
SO-50 24 Oct 14:25:38 14:30:09 65° 312° (NW) 14:34:49 436.795 FM
Uribyol 2 24 Oct 14:31:11 14:36:25 78° 256° (WSW) 14:41:41 436.500 FM
ITAMSAT 1 24 Oct 14:37:10 14:42:22 74° 256° (WSW) 14:47:38 435.822 SSB
ISS 24 Oct 14:54:17 14:57:38 80° 339° (NNW) 15:00:59 145.800 FM
Gurwin Techsat 1B 24 Oct 14:55:00 15:00:19 87° 75° (ENE) 15:05:41 435.225 FM
JAS-1B 24 Oct 14:57:17 15:02:32 33° 264° (W) 15:07:37 435.800 - 435.900 CW/SSB
Sapphire 24 Oct 15:06:13 15:09:13 15° 256° (WSW) 15:12:14 437.095 MHz 1200 baud AX-25 AFSK
TMSAT-1 24 Oct 15:06:27 15:11:45 83° 74° (ENE) 15:17:06 436.925 FM
Oscar 19 24 Oct 15:07:55 15:11:34 19° 270° (W) 15:15:14 437.125 CW, 437.150 USB
AO-27 24 Oct 15:23:40 15:28:14 30° 265° (W) 15:32:50 436.795 MHz FM
KITSAT 1 24 Oct 15:24:24 15:31:35 34° 329° (NNW) 15:38:48 435.175 FM
Saudisat 1A 24 Oct 15:39:20 15:43:29 38° 42° (NE) 15:47:38 436.775 MHz
UOSAT-12 24 Oct 15:50:43 15:55:24 88° 308° (NW) 16:00:10 437.025 FM, 437.400 FM
AO-Echo 24 Oct 15:52:04 15:54:43 14° 273° (W) 15:57:25 ?
Uosat F 24 Oct 15:55:16 15:59:57 41° 66° (ENE) 16:04:40 435.120 FM
SO-50 24 Oct 16:08:26 16:11:37 18° 334° (NNW) 16:14:51 436.795 FM
AO-7 24 Oct 16:14:57 16:23:15 88° 69° (ENE) 16:31:36 29.400 - 29.500 MHz
Uribyol 2 24 Oct 16:15:05 16:16:46 11° 275° (W) 16:18:27 436.500 FM
ITAMSAT 1 24 Oct 16:21:41 16:22:47 11° 275° (W) 16:23:54 435.822 SSB
ISS 24 Oct 16:31:22 16:34:35 43° 359° (N) 16:37:49 145.800 FM
Gurwin Techsat 1B 24 Oct 16:38:10 16:41:01 15° 273° (W) 16:43:53 435.225 FM
TMSAT-1 24 Oct 16:49:19 16:52:22 15° 272° (W) 16:55:26 436.925 FM
JAS-2 24 Oct 16:51:35 16:57:14 40° 62° (ENE) 17:03:36 435.800 - 435.900 CW/SSB, 435.910 FM
Hamsat 24 Oct 17:16:50 17:20:32 30° 67° (ENE) 17:24:13 145.90 MHz
Saudisat 1A 24 Oct 17:19:01 17:23:02 34° 241° (WSW) 17:27:02 436.775 MHz
KITSAT 1 24 Oct 17:23:50 17:29:47 22° 358° (N) 17:35:44 435.175 FM
UOSAT-12 24 Oct 17:32:34 17:36:13 22° 329° (NNW) 17:39:54 437.025 FM, 437.400 FM
OPAL 24 Oct 17:32:59 17:36:38 20° 94° (E) 17:40:15 ?
Uosat F 24 Oct 17:34:28 17:38:50 30° 265° (W) 17:43:16 435.120 FM
SO-50 24 Oct 17:52:57 17:54:06 11° 359° (N) 17:55:15 436.795 FM
ISS 24 Oct 18:08:14 18:11:34 71° 18° (NNE) 18:14:55 145.800 FM
AO-7 24 Oct 18:10:53 18:17:05 23° 270° (W) 18:23:20 29.400 - 29.500 MHz
AO-40 24 Oct 18:11:51 22:57:21 32° 188° (S) 04:02:42 Beacon 2401.320
JAS-2 24 Oct 18:36:35 18:42:17 43° 265° (W) 18:48:44 435.800 - 435.900 CW/SSB, 435.910 FM
SO-67 24 Oct 18:38:27 18:41:23 27° 69° (ENE) 18:44:20 435.3500 MHz FM
Hamsat 24 Oct 18:52:49 18:56:28 29° 265° (W) 19:00:08 145.90 MHz
HO-68 24 Oct 19:09:21 19:14:17 21° 49° (NE) 19:19:14 435.675 MHz FM
OPAL 24 Oct 19:11:01 19:15:56 59° 292° (WNW) 19:20:46 ?
STRAND 1 24 Oct 19:16:34 19:20:57 27° 94° (E) 19:25:17 ?
UOSAT-12 24 Oct 19:16:46 19:18:08 11° 354° (N) 19:19:30 437.025 FM, 437.400 FM
KITSAT 1 24 Oct 19:21:04 19:28:06 31° 28° (NNE) 19:35:06 435.175 FM
SO-50 24 Oct 19:33:34 19:36:38 17° 24° (NNE) 19:39:45 436.795 FM
ISS 24 Oct 19:45:10 19:48:04 27° 217° (SW) 19:50:58 145.800 FM
SO-67 24 Oct 20:11:38 20:14:22 22° 266° (W) 20:17:07 435.3500 MHz FM
UKube-1 24 Oct 20:27:15 20:29:44 15° 58° (ENE) 20:32:14 145.840 MHz, 145.915 MHz
RS-15 24 Oct 20:52:19 20:58:36 17° 97° (E) 21:04:50 29.354 - 29.394 USB, Beacon 29.352 USB
OPAL 24 Oct 20:52:37 20:53:49 11° 312° (NW) 20:55:01 ?
HO-68 24 Oct 20:53:48 21:00:57 78° 70° (ENE) 21:08:10 435.675 MHz FM
STRAND 1 24 Oct 20:55:24 21:00:20 46° 292° (WNW) 21:05:14 ?
UOSAT-12 24 Oct 20:57:49 21:00:21 14° 19° (NNE) 21:02:52 437.025 FM, 437.400 FM
FUNcube-1 24 Oct 21:06:28 21:09:05 15° 59° (ENE) 21:11:41 145.950 - 145.970 MHz USB
Oscar 11 24 Oct 21:07:17 21:11:02 29° 66° (ENE) 21:14:46 145.825 FM, Beacon 2401.500 USB
SO-50 24 Oct 21:13:31 21:18:15 53° 46° (NE) 21:23:01 436.795 FM
KITSAT 1 24 Oct 21:16:37 21:24:46 81° 53° (NE) 21:32:51 435.175 FM
ZACube-1 24 Oct 21:55:55 22:00:13 41° 69° (ENE) 22:04:27 437.345 MHz
UKube-1 24 Oct 22:01:02 22:05:23 74° 257° (WSW) 22:09:47 145.840 MHz, 145.915 MHz
UOSAT-12 24 Oct 22:37:18 22:41:47 39° 41° (NE) 22:46:11 437.025 FM, 437.400 FM
FUNcube-1 24 Oct 22:40:20 22:44:55 77° 257° (WSW) 22:49:27 145.950 - 145.970 MHz USB
Oscar 11 24 Oct 22:43:15 22:47:09 32° 264° (W) 22:51:04 145.825 FM, Beacon 2401.500 USB
HO-68 24 Oct 22:43:55 22:49:25 23° 270° (W) 22:54:58 435.675 MHz FM
Oscar 10/S400 24 Oct 22:53:36 23:43:28 35° 214° (SW) 04:34:53 145.825 - 145.975 CW/USB, Beacon 145.810 USB
SO-50 24 Oct 22:54:31 22:58:35 27° 245° (WSW) 23:02:39 436.795 FM
RS-15 24 Oct 22:57:53 23:08:42 69° 120° (ESE) 23:19:31 29.354 - 29.394 USB, Beacon 29.352 USB
KITSAT 1 24 Oct 23:12:54 23:19:21 27° 254° (WSW) 23:25:48 435.175 FM
MaSat-1 24 Oct 23:26:54 23:29:37 18° 109° (ESE) 23:32:10 437.345 MHz
ZACube-1 24 Oct 23:32:58 23:36:44 25° 267° (W) 23:40:29 437.345 MHz
UOSAT-12 25 Oct 00:17:34 00:21:56 37° 241° (WSW) 00:26:13 437.025 FM, 437.400 FM
MaSat-1 25 Oct 01:01:07 01:05:01 49° 303° (WNW) 01:08:32 437.345 MHz
RS-15 25 Oct 01:11:12 01:21:41 49° 327° (NNW) 01:32:20 29.354 - 29.394 USB, Beacon 29.352 USB
Oscar 19 25 Oct 01:35:45 01:39:04 17° 89° (E) 01:42:22 437.125 CW, 437.150 USB
AO-27 25 Oct 01:55:45 01:56:56 11° 85° (E) 01:58:08 436.795 MHz FM
AO-Echo 25 Oct 02:14:26 02:18:32 22° 91° (E) 02:22:37 ?
Oscar 16 25 Oct 02:20:31 02:25:23 42° 98° (E) 02:30:13 437.025 USB, Beacon 2401.1428
JAS-1B 25 Oct 02:34:17 02:40:40 51° 100° (E) 02:48:12 435.800 - 435.900 CW/SSB
Uribyol 2 25 Oct 02:40:44 02:45:14 29° 94° (E) 02:49:42 436.500 FM
ITAMSAT 1 25 Oct 02:46:45 02:51:22 31° 95° (E) 02:55:56 435.822 SSB
PCSat 25 Oct 02:51:20 02:51:39 10° 101° (E) 02:51:59 145.825 MHz
Gurwin Techsat 1B 25 Oct 03:08:04 03:12:32 27° 93° (E) 03:16:59 435.225 FM
Oscar 19 25 Oct 03:13:51 03:18:58 72° 288° (WNW) 03:24:03 437.125 CW, 437.150 USB
OPAL 25 Oct 03:16:52 03:17:54 11° 48° (NE) 03:18:57 ?
TMSAT-1 25 Oct 03:19:12 03:23:34 25° 93° (E) 03:27:54 436.925 FM
RS-15 25 Oct 03:27:41 03:37:18 33° 0° (N) 03:47:08 29.354 - 29.394 USB, Beacon 29.352 USB
AO-27 25 Oct 03:32:06 03:37:22 74° 104° (ESE) 03:42:35 436.795 MHz FM
AO-Echo 25 Oct 03:52:26 03:57:40 60° 289° (WNW) 04:02:53 ?
Oscar 16 25 Oct 04:00:10 04:04:36 31° 297° (WNW) 04:09:02 437.025 USB, Beacon 2401.1428
Sapphire 25 Oct 04:06:33 04:11:35 41° 114° (ESE) 04:16:39 437.095 MHz 1200 baud AX-25 AFSK
AO-7 25 Oct 04:13:20 04:19:41 23° 90° (E) 04:26:00 29.400 - 29.500 MHz
Uribyol 2 25 Oct 04:19:56 04:24:53 44° 293° (WNW) 04:29:47 436.500 FM
JAS-1B 25 Oct 04:25:26 04:31:13 37° 297° (WNW) 04:37:54 435.800 - 435.900 CW/SSB
ITAMSAT 1 25 Oct 04:26:04 04:30:59 42° 294° (WNW) 04:35:52 435.822 SSB
PCSat 25 Oct 04:28:39 04:34:00 65° 119° (ESE) 04:39:23 145.825 MHz
Gurwin Techsat 1B 25 Oct 04:47:38 04:52:45 49° 292° (WNW) 04:57:50 435.225 FM
OPAL 25 Oct 04:50:46 04:55:46 56° 67° (ENE) 05:00:45 ?
Oscar 19 25 Oct 04:55:16 04:57:25 13° 307° (NW) 04:59:35 437.125 CW, 437.150 USB
TMSAT-1 25 Oct 04:58:38 05:03:46 51° 291° (WNW) 05:08:53 436.925 FM
STRAND 1 25 Oct 05:02:12 05:02:42 10° 50° (NE) 05:03:11 ?
AO-27 25 Oct 05:12:41 05:16:20 20° 303° (WNW) 05:19:58 436.795 MHz FM
AO-Echo 25 Oct 05:33:47 05:35:24 11° 309° (NW) 05:37:01 ?
Uosat F 25 Oct 05:37:35 05:42:38 64° 102° (ESE) 05:47:38 435.120 FM
JAS-2 25 Oct 05:40:52 05:47:38 32° 91° (E) 05:54:25 435.800 - 435.900 CW/SSB, 435.910 FM
RS-15 25 Oct 05:42:16 05:52:56 49° 33° (NNE) 06:03:56 29.354 - 29.394 USB, Beacon 29.352 USB
Sapphire 25 Oct 05:49:57 05:55:02 40° 315° (NW) 06:00:10 437.095 MHz 1200 baud AX-25 AFSK
AO-7 25 Oct 06:05:07 06:13:29 87° 291° (WNW) 06:21:50 29.400 - 29.500 MHz
PCSat 25 Oct 06:13:09 06:17:51 29° 320° (NW) 06:22:34 145.825 MHz
OPAL 25 Oct 06:30:59 06:34:59 23° 265° (W) 06:38:58 ?
Hamsat 25 Oct 06:34:11 06:38:06 37° 97° (E) 06:42:01 145.90 MHz
STRAND 1 25 Oct 06:35:48 06:40:48 56° 70° (ENE) 06:45:51 ?
Uosat F 25 Oct 07:17:16 07:20:59 21° 301° (WNW) 07:24:41 435.120 FM
JAS-2 25 Oct 07:25:27 07:33:06 68° 290° (WNW) 07:40:52 435.800 - 435.900 CW/SSB, 435.910 FM
Saudisat 1A 25 Oct 07:28:49 07:32:25 25° 116° (ESE) 07:36:02 436.775 MHz
SO-67 25 Oct 07:31:05 07:33:39 19° 93° (E) 07:36:13 435.3500 MHz FM
Sapphire 25 Oct 07:37:12 07:40:01 14° 339° (NNW) 07:42:50 437.095 MHz 1200 baud AX-25 AFSK
RS-15 25 Oct 07:54:59 08:06:00 70° 240° (WSW) 08:17:29 29.354 - 29.394 USB, Beacon 29.352 USB
AO-7 25 Oct 07:58:49 08:05:17 26° 313° (NW) 08:11:45 29.400 - 29.500 MHz
PCSat 25 Oct 08:01:13 08:03:10 12° 345° (NNW) 08:05:06 145.825 MHz
Hamsat 25 Oct 08:10:30 08:13:54 24° 295° (WNW) 08:17:17 145.90 MHz
STRAND 1 25 Oct 08:16:22 08:20:20 22° 268° (W) 08:24:21 ?
HO-68 25 Oct 08:21:20 08:23:00 11° 82° (E) 08:24:41 435.675 MHz FM
SO-67 25 Oct 09:03:38 09:06:42 30° 290° (WNW) 09:09:45 435.3500 MHz FM
Saudisat 1A 25 Oct 09:07:28 09:11:45 49° 315° (NW) 09:16:03 436.775 MHz
MaSat-1 25 Oct 09:08:14 09:10:57 69° 59° (ENE) 09:13:25 437.345 MHz
JAS-2 25 Oct 09:11:52 09:16:52 19° 310° (NW) 09:21:59 435.800 - 435.900 CW/SSB, 435.910 FM
Sapphire 25 Oct 09:25:22 09:26:01 10° 5° (N) 09:26:40 437.095 MHz 1200 baud AX-25 AFSK
UKube-1 25 Oct 09:46:58 09:49:27 15° 90° (E) 09:51:55 145.840 MHz, 145.915 MHz
PCSat 25 Oct 09:47:35 09:49:13 11° 12° (NNE) 09:50:51 145.825 MHz
HO-68 25 Oct 10:05:08 10:12:16 59° 102° (ESE) 10:19:20 435.675 MHz FM
RS-15 25 Oct 10:09:26 10:16:17 19° 262° (W) 10:23:20 29.354 - 29.394 USB, Beacon 29.352 USB
Oscar 11 25 Oct 10:26:52 10:30:49 34° 97° (E) 10:34:45 145.825 FM, Beacon 2401.500 USB
FUNcube-1 25 Oct 10:27:14 10:29:50 16° 89° (E) 10:32:23 145.950 - 145.970 MHz USB
Saudisat 1A 25 Oct 10:49:52 10:52:21 15° 337° (NNW) 10:54:50 436.775 MHz
Sapphire 25 Oct 11:07:46 11:11:44 20° 31° (NNE) 11:15:41 437.095 MHz 1200 baud AX-25 AFSK
